This is the latest recevied weather packets stored in our database for station/object MARKET. If no packets are shown the sender has not sent any weather packets the latest 10 day(s).
| Time | Temp. | Humidity | Pressure | Rain* | Wind** | Luminosity | Snow |
|---|---|---|---|---|---|---|---|
| 1777873637 | 5° C | 90% | 1004.7 hPa | - | - | - | - |
| 1777872437 | 5° C | 89% | 1004.8 hPa | - | - | - | - |
| 1777871237 | 5° C | 90% | 1004.9 hPa | - | - | - | - |
| 1777870036 | 5° C | 90% | 1005.2 hPa | - | - | - | - |
| 1777868836 | 5° C | 88% | 1005.5 hPa | - | - | - | - |
| 1777867637 | 5° C | 88% | 1005.8 hPa | - | - | - | - |
| 1777866437 | 5° C | 87% | 1005.9 hPa | - | - | - | - |
| 1777865237 | 5° C | 88% | 1006.2 hPa | - | - | - | - |
| 1777864037 | 5° C | 85% | 1006.4 hPa | - | - | - | - |
| 1777862836 | 5° C | 85% | 1006.3 hPa | - | - | - | - |
| 1777861637 | 5° C | 82% | 1006.7 hPa | - | - | - | - |
| 1777860436 | 5° C | 81% | 1007 hPa | - | - | - | - |
| 1777859237 | 5° C | 82% | 1007.2 hPa | - | - | - | - |
| 1777858036 | 5° C | 84% | 1007.3 hPa | - | - | - | - |
| 1777856837 | 5° C | 86% | 1007.5 hPa | - | - | - | - |
| 1777855636 | 5° C | 82% | 1007.7 hPa | - | - | - | - |
| 1777854437 | 5° C | 77% | 1007.8 hPa | - | - | - | - |
| 1777853237 | 5° C | 80% | 1007.8 hPa | - | - | - | - |
| 1777852036 | 5° C | 84% | 1008.1 hPa | - | - | - | - |
| 1777850836 | 5° C | 83% | 1008.4 hPa | - | - | - | - |
| 1777849636 | 5° C | 83% | 1008.4 hPa | - | - | - | - |
| 1777848436 | 4.44° C | 85% | 1008.5 hPa | - | - | - | - |
| 1777847235 | 4.44° C | 86% | 1008.6 hPa | - | - | - | - |
| 1777846036 | 4.44° C | 84% | 1008.9 hPa | - | - | - | - |
| 1777844835 | 4.44° C | 84% | 1009 hPa | - | - | - | - |
* Rain since midnight (hover to see other rain measurements)
** Current wind speed in m/s (hover to see current wind gust speed)